Terug naar catalogus

STARLINK-11464

ActiefCommunicatieVLEO
NORAD 62473·PAYLOAD·🇺🇸 United States

Gelanceerd Dec 31, 2024 vanaf Cape Canaveral Space Force Station

Loading…

Volgende Passages (komende 24 uur)

TLE

VersSource: CelesTrak SupGP

Epoch: Sep 14, 2026, 20:42 UTC

1 62473C 24254M   26257.86298611 -.00011244  00000+0 -87345-4 0  2573
2 62473  43.0005 162.8674 0001697 258.3921  23.6246 15.70840371    13

Volg STARLINK-11464 in realtime met AllMySat

Download on the App Store